STARLINK-34634

Satellite information

Favourite Embed

Satellite Type and Status

PAYLOADIN ORBIT

Key statistics

Satellite STARLINK-34634 at a glance.

Uptime

127

Days in orbit

Revolutions

≈ 15.3

Per day

Orbit

LEO

Low Earth Orbit

Inclination

53.2

Latest

Satellite identification and parameters

Extended collection of information and parameters for STARLINK-34634.

Object identification

Identified? True

Debris? False

Object name: STARLINK-34634

International designator: 2025-167B

Object number (NORAD): 65079

Object ID (CCSDS): 65079

Country: UNITED STATES OF AMERICA (US)

Current information (Y/N): Y

RCS size: LARGE

Orbital parameters

Period: 94.107 minutes

Inclination: 53.1601 deg

SMA: 6853.44 km

Apoapsis: 476.196 km

Periapsis: 474.413 km

RAAN: 86.2993 deg

Eccentricy: 0.0001301

Argument of periapsis: 77.0321 deg

Mean anomaly: 282.2296 deg

Mean motion: 15.30170666 rev/day

Mean motion (dot): 0.00034306 rev/day2

B* drag term: 0.0011661 1/REarth

Two-line elements (TLE)

Creation date: Dec. 9, 2025, 12:26 a.m.

Reference frame: TEME

Reference center: EARTH

Epoch: Dec. 8, 2025, 8 p.m. UTC

TLE line 0: 0 STARLINK-34634

TLE line 1: 1 65079U 25167B 25342.83335647 .00034306 00000-0 11661-2 0 9996

TLE line 2: 2 65079 53.1601 86.2993 0001301 77.0321 282.2296 15.30170666 5930

Live tracking on map

Real-time ground track for satellite STARLINK-34634.

In-orbit conjunctions

There are no conjunctions computed for STARLINK-34634, at the moment. Check back to stay up to date, as we update our databases every day.

Go to all conjunctions

Associated space launch

A batch of 28 satellites for the Starlink mega-constellation - SpaceX's project for space-based Internet communication system.

STARLINK-34634 was lifted into orbit during the mission ‘Falcon 9 Block 5 | Starlink Group 10-30’, on board a Falcon 9 space rocket.

The launch took place on Aug. 4, 2025, 7:57 a.m. from Space Launch Complex 40.

For more information about the launch, click the button.

Launch to space Falcon 9 Block 5 | Starlink Group 10-30
Falcon 9 Block 5 | Starlink Group 10-30

Agency: SpaceX

Status: Launch Successful

Launch date: Aug. 4, 2025, 7:57 a.m. UTC

Rocket: Falcon 9

Launch pad: Space Launch Complex 40

Location: Cape Canaveral SFS, FL, USA

...

Latest news about this satellite

News about space launch
Live coverage: Starlink mission marks SpaceX’s 450th flight-proven Falcon booster launch

The Starlink 10-30 mission will add 28 more satellites to SpaceX’s low Earth orbit megaconstellation. Liftoff of the Falcon 9 rocket from pad 40 at Cape Canaveral Space Force Station is set for 1:03 a.m. EDT (0503 UTC) on Monday.


Newsletter sign-up

Weekly statistics, charts and insights to help you stay on top of the space industry.